[Date Prev][Date Next][Thread Prev][Thread Next] - [Date Index][Thread Index][Author Index]

ISS Keps 12-21




ISS
1 25544U 98067A   00356.39990947  .00042103  00000-0  40574-3 0  4105
2 25544  51.5704 268.7902 0008572 256.1978 103.8733 15.65776216119268

----
Via the sarex mailing list at AMSAT.ORG courtesy of AMSAT-NA.
To unsubscribe, send "unsubscribe sarex" to Majordomo@amsat.org



AMSAT Top AMSAT Home